DW5330 Weather Reports


Display with metric or nautical units.
time (UTC)temp
F
wind
direction
speed
MPH
gust
MPH
rain 1hr
in
rain 24hr
in
rain mn
in
humidity
%
barometer
mb
20260505072506 68 175 3.0 6.0 0.00 0.06 0.00 54 1018.3
20260505071006 68 177 1.0 3.0 0.00 0.06 0.00 54 1018.1
20260505064506 69 173 5.0 9.0 0.00 0.06 0.00 53 1017.6
20260505063506 70 180 3.0 7.0 0.00 0.06 0.00 52 1017.5
20260505063006 70 177 2.0 8.0 0.00 0.06 0.00 52 1017.4
20260505062507 70 169 3.0 8.0 0.00 0.06 0.00 52 1017.4
20260505062006 70 170 4.0 7.0 0.00 0.06 0.00 53 1017.3
20260505061507 70 171 3.0 7.0 0.00 0.06 0.00 53 1017.3
20260505061006 71 169 5.0 8.0 0.00 0.06 0.00 53 1017.3
20260505060506 72 173 2.0 6.0 0.00 0.06 0.00 52 1017.3
20260505053505 76 91 1.0 3.0 0.00 0.06 0.00 38 1017.1
20260505053006 76 310 0.0 1.0 0.00 0.06 0.00 37 1017.1
20260505052507 75 282 0.0 2.0 0.00 0.06 0.00 38 1017.1
20260505052006 75 170 0.0 0.0 0.00 0.06 0.00 39 1017.1
20260505051506 76 170 1.0 5.0 0.00 0.06 0.00 39 1017.1
20260505051006 76 300 2.0 6.0 0.00 0.06 0.00 39 1017.0
20260505050506 77 262 1.0 2.0 0.00 0.06 0.00 37 1016.9
20260505041505 73 173 1.0 3.0 0.00 0.06 0.00 42 1016.6
20260505041006 73 107 1.0 3.0 0.00 0.06 0.00 44 1016.7
20260505040507 73 123 1.0 3.0 0.00 0.06 0.00 44 1016.6
20260505035507 73 186 1.0 3.0 0.00 0.06 0.00 43 1016.7
20260505035006 73 101 1.0 2.0 0.00 0.06 0.00 44 1016.7
20260505034505 73 124 0.0 2.0 0.00 0.06 0.00 44 1016.7
20260505034006 74 217 1.0 3.0 0.00 0.06 0.00 44 1016.9
20260505033005 74 198 1.0 3.0 0.00 0.06 0.00 43 1016.9
20260505031507 72 333 1.0 5.0 0.00 0.06 0.00 45 1017.0
20260505024505 72 131 1.0 3.0 0.00 0.06 0.00 47 1017.2
20260505024006 72 172 1.0 3.0 0.00 0.07 0.00 47 1017.3
20260505022006 71 183 1.0 3.0 0.00 0.08 0.00 48 1017.4
20260505021005 70 334 3.0 8.0 0.00 0.08 0.00 49 1017.4
20260505020506 70 207 1.0 3.0 0.00 0.08 0.00 49 1017.4
20260505014505 69 140 1.0 8.0 0.00 0.09 0.00 51 1017.6
20260505014005 69 343 3.0 7.0 0.00 0.09 0.00 52 1017.7
20260505013005 68 149 1.0 5.0 0.00 0.09 0.00 52 1017.7
20260505012005 68 159 0.0 3.0 0.00 0.09 0.00 54 1017.9
20260505011005 69 134 1.0 6.0 0.00 0.09 0.00 54 1018.1
20260505005007 68 155 2.0 3.0 0.00 0.09 0.00 54 1018.4
20260505004505 68 118 1.0 3.0 0.00 0.09 0.00 54 1018.5
20260505004005 68 160 2.0 6.0 0.00 0.09 0.00 55 1018.6
20260505003505 68 146 2.0 5.0 0.00 0.09 0.00 54 1018.5
20260505002506 67 99 1.0 3.0 0.00 0.09 0.00 54 1018.6
20260505001005 67 227 2.0 6.0 0.00 0.09 0.00 55 1018.6
20260505000505 68 191 0.0 3.0 0.00 0.09 0.00 53 1018.6
20260505000004 67 182 1.0 3.0 0.00 0.09 0.00 54 1018.5
20260504235505 67 119 2.0 7.0 0.00 0.09 0.00 55 1018.4
20260504235006 67 167 2.0 10.0 0.00 0.09 0.00 54 1018.6
20260504234505 67 181 2.0 3.0 0.00 0.09 0.00 54 1018.6
20260504234005 67 265 2.0 5.0 0.00 0.09 0.00 55 1018.6
20260504233505 67 167 3.0 7.0 0.00 0.09 0.00 55 1018.6
20260504232505 66 158 2.0 6.0 0.00 0.09 0.00 56 1018.6
20260504232005 66 169 2.0 6.0 0.00 0.09 0.00 56 1018.7
20260504231505 66 173 2.0 6.0 0.00 0.09 0.00 56 1018.7
20260504230506 67 183 3.0 9.0 0.00 0.09 0.00 56 1018.7
20260504225005 67 235 1.0 3.0 0.00 0.09 0.00 54 1018.8
20260504223005 67 151 1.0 2.0 0.00 0.09 0.00 55 1018.6
20260504215005 64 233 1.0 3.0 0.00 0.10 0.00 62 1018.6
20260504214506 64 159 1.0 3.0 0.00 0.10 0.00 62 1018.5
20260504213005 64 160 1.0 2.0 0.00 0.10 0.00 66 1018.1
20260504212506 63 174 1.0 2.0 0.00 0.10 0.00 67 1018.0
20260504204004 60 173 1.0 3.0 0.00 0.10 0.00 72 1017.4
20260504203506 60 125 1.0 2.0 0.00 0.10 0.00 71 1017.4
20260504203005 60 150 1.0 3.0 0.00 0.10 0.00 71 1017.2
20260504202505 60 178 0.0 1.0 0.00 0.10 0.00 71 1017.2
20260504195005 60 179 1.0 3.0 0.00 0.10 0.00 74 1016.9
20260504194005 60 195 0.0 2.0 0.00 0.10 0.00 73 1016.9
20260504193005 60 151 0.0 2.0 0.00 0.10 0.00 72 1016.7
20260504190504 61 179 1.0 2.0 0.00 0.10 0.00 72 1016.6
20260504185505 61 162 1.0 3.0 0.00 0.10 0.00 72 1016.5
20260504184005 61 153 1.0 3.0 0.00 0.10 0.00 72 1016.2
20260504180505 62 142 1.0 3.0 0.00 0.10 0.00 69 1016.0
20260504180005 62 173 2.0 3.0 0.00 0.10 0.00 70 1015.9
20260504175504 62 153 1.0 2.0 0.00 0.10 0.00 70 1015.9
20260504175005 62 142 1.0 3.0 0.00 0.10 0.00 70 1015.9
20260504173504 63 172 1.0 3.0 0.00 0.10 0.00 68 1016.0
20260504172005 63 201 2.0 3.0 0.00 0.10 0.00 68 1016.1
20260504171005 63 169 1.0 2.0 0.00 0.10 0.00 68 1016.1
20260504150506 65 151 0.0 2.0 0.00 0.10 0.00 74 1016.4
20260504141007 65 204 1.0 3.0 0.05 0.10 0.00 79 1016.1
20260504130506 68 146 0.0 2.0 0.00 0.12 0.05 76 1016.1
20260504100506 70 301 5.0 9.0 0.01 0.17 0.05 70 1015.1